Date String (YYYY-MM-DD hh:mm:ss) UTC,Instrument flags,Ambient pressure (hPa),Sample flow (lpm),Bypass flow (lpm),Sample temperature (°C),Ambient temperature (°C),ASC tube jacket temperature (°C),LED temperature (°C),Box temperature (°C),Sample RH (%),Span deviation,Mass concentration (μg/m³),Mass concentration (μg/m³),Mass concentration (μg/m³)
DateTimeUTC,F1_M11,P_M11,Q1_M11,Q2_M11,T1_M11,T2_M11,T3_M11,T4_M11,T5_M11,U1_M11,ZSPAN_M11,X0_M11,X2_M11,X1_M11
2022-12-29 04:00:00,,0811.8,5.00,0.00,21.9,19.9,00.0,31.1,23.4,21.6,0000.0,0001.30,0001.17,0001.17
2022-12-29 04:01:00,,0811.9,5.00,0.00,21.9,19.9,00.0,31.1,23.4,21.7,0000.0,0001.32,0001.18,0001.18
2022-12-29 04:02:00,,0811.9,5.00,0.00,21.9,19.9,00.0,31.1,23.4,21.7,0000.0,0001.33,0001.20,0001.19
2022-12-29 04:03:00,,0811.8,4.99,0.00,21.9,20.0,00.0,31.0,23.4,21.7,0000.0,0001.32,0001.19,0001.18
2022-12-29 04:04:00,,0811.8,5.00,0.00,21.8,20.0,00.0,31.0,23.4,21.8,0000.0,0001.32,0001.17,0001.15
2022-12-29 04:05:00,,0811.8,5.00,0.00,21.8,19.9,00.0,31.0,23.3,21.8,0000.0,0001.28,0001.13,0001.11
2022-12-29 04:06:00,,0811.8,5.00,0.00,21.8,19.8,00.0,31.0,23.3,21.8,0000.0,0001.26,0001.08,0001.05
2022-12-29 04:07:00,,0811.9,5.00,0.00,21.7,19.8,00.0,30.9,23.2,21.9,0000.0,0001.22,0001.03,0000.99
2022-12-29 04:08:00,,0811.9,5.01,0.00,21.7,19.8,00.0,30.9,23.3,21.9,0000.0,0001.22,0001.01,0000.96
2022-12-29 04:09:00,,0811.9,5.00,0.00,21.7,19.8,00.0,30.9,23.2,21.9,0000.0,0001.22,0001.00,0000.94
2022-12-29 04:10:00,,0811.8,5.00,0.00,21.7,19.8,00.0,30.9,23.2,21.9,0000.0,0001.20,0000.97,0000.92
2022-12-29 04:11:00,,0811.9,5.00,0.00,21.7,19.8,00.0,30.8,23.2,21.9,0000.0,0001.21,0000.97,0000.90
2022-12-29 04:12:00,,0811.9,5.00,0.00,21.6,19.8,00.0,30.8,23.2,22.0,0000.0,0001.19,0000.94,0000.87
2022-12-29 04:13:00,,0811.9,5.00,0.00,21.6,19.7,00.0,30.8,23.2,22.0,0000.0,0001.15,0000.91,0000.84
2022-12-29 04:14:00,,0811.9,4.99,0.00,21.6,19.7,00.0,30.8,23.1,22.0,0000.0,0001.11,0000.87,0000.80
2022-12-29 04:15:00,,0811.9,5.01,0.00,21.6,19.7,00.0,30.7,23.1,22.0,0000.0,0001.04,0000.81,0000.76
2022-12-29 04:16:00,,0811.9,5.00,0.00,21.5,19.7,00.0,30.7,23.1,22.1,0000.0,0001.02,0000.79,0000.74
2022-12-29 04:17:00,,0811.9,5.00,0.00,21.5,19.6,00.0,30.7,23.1,22.2,0000.0,0000.98,0000.77,0000.73
2022-12-29 04:18:00,,0812.0,5.00,0.00,21.5,19.5,00.0,30.7,23.0,22.2,0000.0,0000.95,0000.76,0000.72
2022-12-29 04:19:00,,0812.0,5.01,0.00,21.4,19.4,00.0,30.6,23.0,22.2,0000.0,0000.91,0000.74,0000.71
2022-12-29 04:20:00,,0812.0,5.00,0.00,21.4,19.4,00.0,30.6,22.9,22.3,0000.0,0000.87,0000.72,0000.70
2022-12-29 04:21:00,,0812.1,4.99,0.00,21.4,19.3,00.0,30.6,22.8,22.4,0000.0,0000.86,0000.71,0000.69
2022-12-29 04:22:00,,0812.0,5.00,0.00,21.3,19.2,00.0,30.5,22.8,22.4,0000.0,0000.81,0000.69,0000.68
2022-12-29 04:23:00,,0812.1,4.99,0.00,21.3,19.2,00.0,30.5,22.7,22.5,0000.0,0000.81,0000.69,0000.68
2022-12-29 04:24:00,,0812.1,5.00,0.00,21.2,19.2,00.0,30.5,22.7,22.6,0000.0,0000.82,0000.70,0000.70
2022-12-29 04:25:00,,0812.1,5.01,0.00,21.2,19.2,00.0,30.5,22.7,22.6,0000.0,0000.86,0000.73,0000.72
2022-12-29 04:26:00,,0812.1,5.00,0.00,21.2,19.2,00.0,30.4,22.7,22.7,0000.0,0000.91,0000.77,0000.76
2022-12-29 04:27:00,,0812.1,5.00,0.00,21.1,19.0,00.0,30.4,22.6,22.7,0000.0,0000.94,0000.81,0000.80
2022-12-29 04:28:00,,0812.1,5.00,0.00,21.1,18.8,00.0,30.3,22.5,22.7,0000.0,0000.98,0000.85,0000.84
2022-12-29 04:29:00,,0812.1,5.00,0.00,21.0,18.7,00.0,30.3,22.4,22.8,0000.0,0001.03,0000.90,0000.89
2022-12-29 04:30:00,,0812.1,5.00,0.00,21.0,18.7,00.0,30.3,22.4,22.8,0000.0,0001.07,0000.94,0000.93
2022-12-29 04:31:00,,0812.1,5.01,0.00,20.9,18.6,00.0,30.2,22.3,23.0,0000.0,0001.14,0001.00,0000.99
2022-12-29 04:32:00,,0812.1,5.00,0.00,20.9,18.6,00.0,30.2,22.3,23.1,0000.0,0001.22,0001.08,0001.07
2022-12-29 04:33:00,,0812.1,5.00,0.00,20.8,18.5,00.0,30.1,22.2,23.1,0000.0,0001.32,0001.17,0001.16
2022-12-29 04:34:00,,0812.1,5.00,0.00,20.8,18.5,00.0,30.1,22.2,23.2,0000.0,0001.41,0001.25,0001.24
2022-12-29 04:35:00,,0812.1,5.00,0.00,20.7,18.4,00.0,30.1,22.1,23.2,0000.0,0001.45,0001.29,0001.27
2022-12-29 04:36:00,,0812.2,4.99,0.00,20.7,18.4,00.0,30.0,22.0,23.3,0000.0,0001.47,0001.31,0001.30
2022-12-29 04:37:00,,0812.2,4.99,0.00,20.6,18.3,00.0,30.0,22.0,23.3,0000.0,0001.46,0001.31,0001.30
2022-12-29 04:38:00,,0812.1,4.99,0.00,20.6,18.2,00.0,29.9,22.0,23.4,0000.0,0001.46,0001.31,0001.30
2022-12-29 04:39:00,,0812.2,5.01,0.00,20.5,18.2,00.0,29.9,21.9,23.4,0000.0,0001.43,0001.28,0001.27
2022-12-29 04:40:00,,0812.2,5.00,0.00,20.5,18.4,00.0,29.8,22.0,23.5,0000.0,0001.41,0001.26,0001.25
2022-12-29 04:41:00,,0812.2,4.97,0.00,20.6,19.6,00.0,29.7,22.3,23.4,0000.0,0001.38,0001.24,0001.23
2022-12-29 04:42:00,,0812.2,5.02,0.00,20.7,20.7,00.0,29.7,22.6,23.2,0000.0,0001.36,0001.20,0001.18
2022-12-29 04:43:00,,0812.2,5.03,0.00,20.9,21.7,00.0,29.7,23.0,22.9,0000.0,0001.29,0001.13,0001.11
2022-12-29 04:44:00,,0812.2,4.96,0.00,21.0,21.7,00.0,29.8,23.1,22.7,0000.0,0001.23,0001.08,0001.06
2022-12-29 04:45:00,,0812.1,5.03,0.00,21.0,20.9,00.0,29.9,22.8,22.7,0000.0,0001.17,0001.02,0001.00
2022-12-29 04:46:00,,0812.1,5.00,0.00,21.0,20.2,00.0,29.9,22.7,22.7,0000.0,0001.18,0001.02,0001.00
2022-12-29 04:47:00,,0812.2,4.97,0.00,21.0,19.8,00.0,29.9,22.5,22.8,0000.0,0001.16,0001.00,0000.98
2022-12-29 04:48:00,,0812.1,5.00,0.00,20.9,19.4,00.0,29.9,22.4,22.8,0000.0,0001.11,0000.95,0000.93
2022-12-29 04:49:00,,0812.2,5.03,0.00,20.9,19.1,00.0,29.9,22.3,22.9,0000.0,0001.04,0000.90,0000.87
2022-12-29 04:50:00,,0812.1,5.00,0.00,20.8,18.9,00.0,29.9,22.2,23.0,0000.0,0000.99,0000.85,0000.82
2022-12-29 04:51:00,,0812.1,4.98,0.00,20.8,18.7,00.0,29.9,22.1,23.1,0000.0,0000.94,0000.81,0000.78
2022-12-29 04:52:00,,0812.2,5.01,0.00,20.7,18.5,00.0,29.9,22.1,23.1,0000.0,0000.89,0000.76,0000.74
2022-12-29 04:53:00,,0812.1,4.99,0.00,20.6,18.4,00.0,29.8,22.0,23.2,0000.0,0000.82,0000.72,0000.70
2022-12-29 04:54:00,,0812.1,4.97,0.00,20.6,18.3,00.0,29.8,21.9,23.3,0000.0,0000.78,0000.70,0000.68
2022-12-29 04:55:00,,0812.1,5.02,0.00,20.5,18.3,00.0,29.8,21.9,23.4,0000.0,0000.74,0000.66,0000.65
2022-12-29 04:56:00,,0812.1,4.97,0.00,20.5,18.2,00.0,29.8,21.8,23.5,0000.0,0000.67,0000.61,0000.60
2022-12-29 04:57:00,,0812.1,5.02,0.00,20.4,18.2,00.0,29.7,21.8,23.5,0000.0,0000.54,0000.50,0000.50
2022-12-29 04:58:00,,0812.2,5.00,0.00,20.5,19.1,00.0,29.6,22.0,23.5,0000.0,0000.45,0000.43,0000.43
2022-12-29 04:59:00,,0812.2,4.98,0.00,20.6,20.5,00.0,29.6,22.5,23.3,0000.0,0000.41,0000.40,0000.39
